Flag for France

Past Weather in Saint-Étienne, Auvergne-Rhône-Alpes, France — Yesterday and Last 2 Weeks

Now
86 °F

Sunny.


Feels Like: 84 °F
Forecast: 77 / 62 °F
Wind: 21 mph from South

Location: St-Etienne Boutheon
Current Time: Sep 18, 2020 at 1:52:34 pm
Latest Report: Sep 18, 2020 at 1:00 pm
Visibility: 10 mi
Pressure30.04 "Hg(28.30 "Hg at 529m altitude)
Humidity: 31%
Dew Point: 52 °F
Location of Saint-ÉtienneLocation

Past Weather in Saint-Étienne — Graph

°F

Saint-Étienne Temperature Yesterday

Maximum temperature yesterday: 86 °F (at 4:00 pm)
Minimum temperature yesterday: 54 °F (at 7:30 am)
Average temperature yesterday: 71 °F

High & Low Weather Summary for the Past Weeks

 TemperatureHumidityPressure
High93 °F (Sep 14, 3:00 pm)94% (Sep 9, 6:00 am)30.36 "Hg (Sep 9, 6:00 am)
Low43 °F (Sep 7, 7:30 am)20% (Sep 14, 3:30 pm)30.01 "Hg (Sep 10, 7:00 pm)
Average69 °F54%30.16 "Hg
* Reported Sep 3 12:00 pm — Sep 18 12:30 pm, Saint-Étienne. Weather by CustomWeather, © 2020

Note: Actual official high and low records may vary slightly from our data, if they occured in-between our weather recording intervals... More about our weather records

Saint-Étienne Weather History for the Previous 24 Hours

Scroll right to see more
 ConditionsComfort  
Time TempWeatherWind HumidityBarometerVisibility
12:30 pm
Fri, Sep 18
86 °FSunny.18 mph31%30.07 "Hg10 mi
12:00 pm84 °FSunny.21 mph33%30.07 "Hg10 mi
11:30 am82 °FPassing clouds.8 mph40%30.07 "HgN/A
11:00 am79 °FPassing clouds.5 mph45%30.07 "HgN/A
10:30 am77 °FPassing clouds.5 mph47%30.07 "HgN/A
10:00 am73 °FSunny.2 mph57%30.07 "Hg10 mi
9:30 am70 °FSunny.7 mph64%30.07 "Hg10 mi
9:00 am66 °FSunny.3 mph73%30.07 "Hg10 mi
8:30 am63 °FSunny.5 mph83%30.07 "Hg10 mi
8:00 am55 °FSunny.2 mph88%30.07 "Hg10 mi
7:30 am54 °FSunny.1 mph88%30.07 "Hg10 mi
7:00 am55 °FClear.2 mph88%30.04 "Hg10 mi
6:30 am57 °FClear.1 mph82%30.04 "Hg10 mi
6:00 am57 °FClear.No wind82%30.04 "Hg10 mi
5:30 am57 °FClear.2 mph82%30.04 "Hg10 mi
5:00 am59 °FClear.3 mph77%30.07 "Hg10 mi
4:30 am63 °FClear.6 mph68%30.07 "Hg10 mi
4:00 am59 °FClear.1 mph82%30.07 "Hg10 mi
3:30 am59 °FClear.2 mph77%30.07 "Hg10 mi
3:00 am61 °FClear.2 mph77%30.07 "Hg10 mi
2:30 am59 °FClear.5 mph77%30.07 "Hg10 mi
2:00 am59 °FClear.2 mph77%30.07 "Hg10 mi
1:30 am61 °FClear.2 mph77%30.07 "Hg10 mi
1:00 am63 °FClear.2 mph73%30.07 "Hg10 mi
12:30 am64 °FClear.3 mph68%30.07 "Hg10 mi
12:00 am68 °FClear.2 mph64%30.07 "Hg10 mi
11:30 pm
Thu, Sep 17
70 °FClear.1 mph57%30.07 "Hg10 mi
11:00 pm75 °FClear.5 mph47%30.07 "Hg10 mi
10:30 pm75 °FPassing clouds.6 mph47%30.07 "HgN/A
10:00 pm75 °FClear.6 mph47%30.04 "Hg10 mi
9:30 pm75 °FClear.7 mph50%30.04 "Hg10 mi
9:00 pm75 °FClear.5 mph50%30.04 "Hg10 mi
8:30 pm77 °FClear.5 mph47%30.04 "Hg10 mi
8:00 pm79 °FClear.6 mph45%30.04 "Hg10 mi
7:30 pm81 °FSunny.7 mph42%30.01 "Hg10 mi
7:00 pm82 °FPassing clouds.7 mph37%30.01 "HgN/A
6:30 pm84 °FSunny.9 mph35%30.01 "Hg10 mi
6:00 pm84 °FPassing clouds.9 mph35%30.01 "HgN/A
5:30 pm86 °FSunny.13 mph31%30.01 "Hg10 mi
5:00 pm86 °FSunny.10 mph31%30.01 "Hg10 mi
4:30 pm86 °FPassing clouds.12 mph29%30.01 "HgN/A
4:00 pm86 °FPassing clouds.12 mph29%30.04 "HgN/A
3:30 pm84 °FPassing clouds.9 mph35%30.04 "HgN/A
3:00 pm84 °FPassing clouds.9 mph35%30.04 "HgN/A
2:30 pm82 °FPassing clouds.7 mph37%30.07 "HgN/A
2:00 pm82 °FPassing clouds.7 mph37%30.07 "HgN/A
1:30 pm81 °FPassing clouds.6 mph37%30.07 "HgN/A
1:00 pm79 °FPassing clouds.6 mph42%30.09 "HgN/A
Weather by CustomWeather, © 2020

See weather overview